Вернуться в каталог

FREGAT DEB

LostUNKNOWN
NORAD 46616·DEBRIS·🇷🇺 Russia

Запущен Jul 18, 2011 с Baikonur Cosmodrome

Loading…

Ближайшие Пролёты (ближайшие 24 часа)

TLE

УстаревшееSource: Space-Track

Эпоха: Dec 3, 2021, 02:42 UTC

1 46616U 11037MG  21337.11264455 -.00105519  00000-0 -57057+0 0  9995
2 46616  50.5761   6.9546 1788676 142.7286 231.2194 10.35078672 44012

Отслеживайте FREGAT DEB в реальном времени с AllMySat

Download on the App Store